Kodiak, AK

3:49 AM AKST on January 24, 2017 (GMT -0900)
Kodiak

Weather History for PADQ - September, 2012

Change the Weather History Date:

Friday, September 7, 2012

  Actual Average Record
Temperature  
Mean Temperature 45 °F 52 °F  
Max Temperature 54 °F 58 °F 67 °F (1985)
Min Temperature 35 °F 46 °F 35 °F (2012)
Degree Days  
Heating Degree Days 20 13  
Month to date heating degree days 106 87  
Since 1 July heating degree days 840 717  
Cooling Degree Days 0    
Month to date cooling degree days 0  
Year to date cooling degree days 0  
Moisture  
Dew Point 40 °F    
Average Humidity 0    
Maximum Humidity 0    
Minimum Humidity 0    
Precipitation  
Precipitation 0.01 in 0.22 in 3.40 in (1938)
Month to date precipitation 0.53 1.38  
Year to date precipitation 33.94 48.17  
Snow  
Snow 0.00 in 0.00 in 1.00 in (1996)
Month to date snowfall 0.0 0.0  
Since 1 July snowfall 0.0 0.0  
Since 1 September snowfall 0.0 0.0  
Snow Depth 0.00 in    
Sea Level Pressure  
Sea Level Pressure 29.98 in    
Wind  
Wind Speed 5 mph (WSW)    
Max Wind Speed 13 mph    
Max Gust Speed 16 mph    
Visibility 10 miles    
Events Rain    
T = Trace of Precipitation, MM = Missing Value Source: NWS Daily Summary

Daily Weather History Graph

Daily Weather History Graph

Search for Another Location

Airport or City:

Trip Planner

Search our weather history database for the weather conditions in past years. The results will help you decide how hot, cold, wet, or windy it might be!

Date:

Astronomy

Sep. 07, 2012 Rise Set
Actual Time 7:24 AM AKDT 8:49 PM AKDT
Civil Twilight 6:44 AM AKDT 9:29 PM AKDT
Nautical Twilight 5:53 AM AKDT 10:19 PM AKDT
Astronomical Twilight 4:55 AM AKDT 11:16 PM AKDT
Moon 11:17 PM AKDT (9/7) 4:01 PM AKDT (9/7)
Length of Visible Light 14h 45m
Length of Day
13h 24m
Waning Gibbous, 57% of the Moon is Illuminated
Sep 7
Waning Gibbous
Sep 8
Last Quarter
Sep 15
New
Sep 22
First Quarter
Sep 29
Full

Hourly Weather History & Observations

Time (AKDT) Temp. Windchill Dew Point Humidity Pressure Visibility Wind Dir Wind Speed Gust Speed Precip Events Conditions
12:53 AM 42.1 °F 38.4 °F 37.9 °F 85% 30.13 in 10.0 mi WSW 5.8 mph - N/A   Mostly Cloudy
1:53 AM 42.1 °F 39.2 °F 39.0 °F 89% 30.12 in 10.0 mi West 4.6 mph - N/A   Mostly Cloudy
2:53 AM 41.0 °F - 37.9 °F 89% 30.11 in 10.0 mi Calm Calm - N/A   Scattered Clouds
3:53 AM 39.0 °F 34.8 °F 37.0 °F 93% 30.10 in 10.0 mi West 5.8 mph - N/A   Scattered Clouds
4:53 AM 39.0 °F 34.8 °F 37.0 °F 93% 30.09 in 10.0 mi West 5.8 mph - N/A   Mostly Cloudy
5:53 AM 37.0 °F 33.3 °F 35.1 °F 93% 30.07 in 10.0 mi WNW 4.6 mph - N/A   Scattered Clouds
6:53 AM 36.0 °F 32.1 °F 34.0 °F 93% 30.06 in 10.0 mi WNW 4.6 mph - N/A   Scattered Clouds
7:53 AM 37.0 °F 32.4 °F 36.0 °F 96% 30.04 in 10.0 mi WNW 5.8 mph - N/A   Scattered Clouds
8:53 AM 39.9 °F 37.8 °F 37.0 °F 89% 30.04 in 10.0 mi West 3.5 mph - N/A   Scattered Clouds
9:53 AM 45.0 °F - 37.9 °F 76% 30.03 in 10.0 mi Calm Calm - N/A   Mostly Cloudy
10:53 AM 46.0 °F - 39.0 °F 76% 30.02 in 10.0 mi Calm Calm - N/A   Overcast
11:53 AM 50.0 °F - 39.9 °F 68% 30.01 in 10.0 mi Calm Calm - N/A   Mostly Cloudy
12:53 PM 51.1 °F - 39.9 °F 66% 29.99 in 10.0 mi South 10.4 mph - 0.00 in Rain Light Rain
1:53 PM 51.1 °F - 43.0 °F 74% 29.99 in 10.0 mi South 9.2 mph - 0.01 in   Overcast
2:53 PM 52.0 °F - 41.0 °F 66% 29.96 in 10.0 mi SSE 3.5 mph - N/A   Overcast
3:53 PM 53.1 °F - 43.0 °F 69% 29.93 in 10.0 mi SSW 5.8 mph - N/A   Overcast
4:53 PM 53.1 °F - 42.1 °F 66% 29.91 in 10.0 mi South 11.5 mph - N/A   Overcast
5:53 PM 51.1 °F - 43.0 °F 74% 29.89 in 10.0 mi SW 8.1 mph - N/A   Overcast
6:53 PM 50.0 °F - 42.1 °F 74% 29.88 in 10.0 mi SW 9.2 mph - N/A   Overcast
7:53 PM 50.0 °F - 42.1 °F 74% 29.86 in 10.0 mi SSW 8.1 mph - N/A   Overcast
8:53 PM 48.0 °F - 42.1 °F 80% 29.85 in 10.0 mi SSW 3.5 mph - N/A   Mostly Cloudy
9:53 PM 48.9 °F - 41.0 °F 74% 29.84 in 10.0 mi Variable 3.5 mph - N/A   Mostly Cloudy
10:53 PM 46.0 °F 43.9 °F 41.0 °F 83% 29.83 in 10.0 mi NW 4.6 mph - N/A   Mostly Cloudy
11:53 PM 46.0 °F 41.9 °F 41.0 °F 83% 29.82 in 10.0 mi NW 8.1 mph - N/A   Mostly Cloudy